Flag for Czech Republic Weather past 2 weeks in Plzen, Czech Republic

Now
29 °F

Fog.


Feels Like: 29 °F
Forecast: 35 / 38 °F
Wind: 1 mph from West

Location: Kocelovice

Current Time: Jan 26, 2015 at 5:54:30 AM

Latest Report: Jan 26, 2015 at 5:00 AM


Visibility: 4 mi

Pressure: 30.34 "Hg

Humidity: 95%

Dew point: 28 °F

Location of PlzenLocation

Historic Weather in Plzen — Graph

°F

Plzen temperature yesterday

Maximum temperature yesterday: 34 °F (at 2:00 PM)
Minimum temperature yesterday: 29 °F (at 12:00 AM)
Average temperature yesterday: 31 °F

Past Weeks' High & Low Weather Summary

 TemperatureHumidityPressure
High52 °F (Jan 13, 2:00 PM)100% (Jan 16, 10:00 AM)30.36 "Hg (Jan 16, 10:00 AM)
Low27 °F (Jan 15, 6:00 AM)34% (Jan 13, 1:00 PM)29.76 "Hg (Jan 17, 12:00 AM)
Average34 °F82%30.03 "Hg
* Reported Jan 11 3:00 AM — Jan 26 3:00 AM, Plzen, Weather by CustomWeather, © 2014

Note: Actual official high and low records may vary slightly from our data, if they occured in-between our weather recording intervals... More about our weather records

Advertising

Plzen weather history for previous 24 hours

 ConditionsComfort  
Time TempWeatherWind HumidityBarometerVisibility
3:00 AM
Jan 26
30 °FChilly.2 mph92%30.34 "Hg12 mi
2:00 AM30 °FChilly.2 mph90%30.34 "Hg12 mi
1:00 AM30 °FChilly.2 mph91%30.35 "Hg12 mi
12:00 AM30 °FSnow flurries. Overcast.3 mph93%30.35 "Hg9 mi
11:00 PM
Jan 25
31 °FSnow flurries. Overcast.5 mph94%30.35 "Hg11 mi
10:00 PM30 °FSnow. Overcast.2 mph96%30.36 "Hg1 mi
9:00 PM31 °FLight snow. Overcast.5 mph84%30.35 "Hg16 mi
8:00 PM31 °FLight snow. Overcast.3 mph83%30.35 "Hg12 mi
7:00 PM32 °FOvercast.5 mph78%30.34 "Hg16 mi
6:00 PM33 °FSnow flurries. Low clouds.5 mph74%30.33 "Hg16 mi
5:00 PM33 °FSnow flurries. Low clouds.3 mph75%30.32 "Hg9 mi
4:00 PM33 °FSnow flurries. Low clouds.6 mph81%30.30 "Hg7 mi
3:00 PM34 °FSnow flurries. Partly sunny.5 mph74%30.29 "Hg16 mi
2:00 PM34 °FPartly sunny.5 mph75%30.29 "Hg16 mi
1:00 PM34 °FOvercast.3 mph77%30.30 "Hg14 mi
12:00 PM33 °FOvercast.6 mph79%30.31 "Hg14 mi
11:00 AM32 °FSnow flurries. Overcast.N/A80%30.32 "Hg12 mi
10:00 AM32 °FOvercast.5 mph80%30.30 "Hg12 mi
9:00 AM31 °FOvercast.5 mph85%30.28 "Hg11 mi
8:00 AM30 °FOvercast.5 mph90%30.26 "Hg4 mi
7:00 AM30 °FLight snow. Overcast.7 mph90%30.23 "Hg4 mi
6:00 AM29 °FSnow flurries. Overcast.6 mph92%30.21 "Hg3 mi
5:00 AM29 °FChilly.6 mph94%30.20 "Hg2 mi
Weather by CustomWeather, © 2014

See weather overviewHow to use our weather pages